This demonstration page uses our WeatherBlox Daily Observations layout. Learn more.

Left ArrowRight Arrow

Hourly Observations for October 6, 2019

Temp ( °F °C ) Dew Point ( °F °C ) Humidity (%) Winds ( mph kmh ) Pressure ( in mb ) Visibility ( mi km ) Precip ( " mm )
12:53 am 00:53 Cloudy 59 15 54 12.2 83 83 WNW 5 7 29.99 1016 10 16 0.00 0.00
1:53 am 01:53 Mostly Cloudy with Light Rain 59 15 58 14.4 96 96 Calm 30.00 1016 10 16 0.02 0.51
2:53 am 02:53 Mostly Cloudy 60 15.6 59 15 96 96 Calm 29.99 1016 9 14 0.00 0.00
3:53 am 03:53 Clear 61 16.1 60 15.6 97 97 Calm 29.98 1015 9 14 0.00 0.00
4:53 am 04:53 Cloudy with Light Rain 61 16.1 60 15.6 97 97 WNW 7 11 30.02 1017 9 14 0.00 0.00
5:53 am 05:53 Mostly Cloudy with Light Rain 61 16.1 60 15.6 97 97 Calm 30.04 1017 9 14 0.00 0.00
6:53 am 06:53 Mostly Cloudy 60 15.6 59 15 96 96 Calm 30.06 1018 8 13 0.00 0.00
7:53 am 07:53 Mostly Cloudy 63 17.2 58 14.4 84 84 VRB 3 6 30.06 1018 10 16 0.00 0.00
8:53 am 08:53 Cloudy 66 18.9 58 14.4 75 75 VRB 5 7 30.08 1019 10 16 0.00 0.00
9:53 am 09:53 Partly Cloudy 68 20 60 15.6 76 76 Calm 30.08 1019 10 16 0.00 0.00
10:34 am 10:34 Cloudy 72 22.2 65 18.3 79 79 SSW 8 13 30.08 1019 10 16 0.00 0.00
10:53 am 10:53 Cloudy 72 22.2 65 18.3 79 79 WSW 8 13 30.09 1019 10 16 0.00 0.00
11:10 am 11:10 Mostly Cloudy 72 22.2 65 18.3 79 79 WSW 10 17 30.09 1019 10 16 0.00 0.00
11:53 am 11:53 Mostly Cloudy 73 22.8 65 18.3 76 76 VRB 6 9 30.10 1019 10 16 0.00 0.00
12:53 pm 12:53 Cloudy 75 23.9 62 16.7 64 64 W 12 19 30.11 1020 10 16 0.00 0.00
1:53 pm 13:53 Cloudy 74 23.3 58 14.4 57 57 VRB 5 7 30.11 1020 10 16 0.00 0.00
2:53 pm 14:53 Mostly Cloudy 74 23.3 57 13.9 56 56 VRB 3 6 30.09 1019 10 16 0.00 0.00
3:53 pm 15:53 Cloudy 74 23.3 58 14.4 57 57 WSW 9 15 30.09 1019 10 16 0.00 0.00
4:53 pm 16:53 Cloudy 71 21.7 61 16.1 71 71 NW 13 20 30.10 1019 10 16 0.00 0.00
5:53 pm 17:53 Cloudy 67 19.4 59 15 76 76 NW 9 15 30.10 1019 10 16 0.00 0.00
6:53 pm 18:53 Cloudy 66 18.9 59 15 78 78 NNW 9 15 30.12 1020 10 16 0.00 0.00
7:53 pm 19:53 Cloudy 65 18.3 59 15 81 81 NW 9 15 30.13 1020 10 16 0.00 0.00
8:53 pm 20:53 Cloudy with Rain 61 16.1 56 13.3 84 84 NNW 12 19 30.16 1021 4 6 0.03 0.76
9:53 pm 21:53 Cloudy with Light Rain 58 14.4 57 13.9 97 97 Calm 30.15 1021 8 13 0.09 2.29
10:36 pm 22:36 Cloudy with Nearby Thunderstorms 58 14.4 57 13.9 97 97 Calm 30.15 1021 10 16 0.03 0.76
10:51 pm 22:51 Cloudy 57 14 57 14 100 100 Calm 30.14 1021 9 14 0.03 0.76
10:53 pm 22:53 Cloudy 58 14.4 58 14.4 100 100 Calm 30.14 1021 9 14 0.03 0.76
11:53 pm 23:53 Cloudy with Light Rain 59 15 58 14.4 96 96 Calm 30.16 1021 5 8 0.02 0.51

Powered by AerisWeather